CES745 NZAA-SAEZ

Flight info

Callsign CES745
Flight time N/A
Altitude 32000
Route TULMI DCT GS DCT 40S175W DCT 40S170W DCT 41S160W DCT 42S150W DCT 43S140W DCT 44S131W DCT 44S130W DCT 44S120W DCT 44S110W DCT 44S100W DCT 44S090W DCT 44S080W DCT MON UM658 BAR UZ109 ISMIL UT655 ASADA
Aircraft B77W/H-SDE1E2E3FGHIJ2J3J4J5M1RWXY/LB1D1

Departure

Time N/A
Airport Auckland International Airport (NZAA)

Arrival

Time 2026-05-06 04:27
Airport Ezeiza International Airport - Ministro Pistarini (SAEZ)
Time Latitude Longitude Altitude Speed Heading
2026-05-06 02:42 -41.81218 -74.02121 31834 ft 479 kts 55°
2026-05-06 02:43 -41.79624 -73.98197 31839 ft 481 kts 55°
2026-05-06 02:43 -41.76420 -73.90321 31829 ft 479 kts 55°
2026-05-06 02:44 -41.73194 -73.82419 31839 ft 491 kts 55°
2026-05-06 02:44 -41.71531 -73.78359 31834 ft 502 kts 55°
2026-05-06 02:44 -41.69846 -73.74246 31828 ft 507 kts 56°
2026-05-06 02:45 -41.66452 -73.65960 31832 ft 504 kts 55°
2026-05-06 02:45 -41.63070 -73.57732 31826 ft 503 kts 55°
2026-05-06 02:46 -41.59698 -73.49554 31822 ft 502 kts 55°
2026-05-06 02:46 -41.56295 -73.41323 31820 ft 501 kts 55°
2026-05-06 02:47 -41.52922 -73.33192 31819 ft 503 kts 54°
2026-05-06 02:47 -41.49554 -73.25090 31819 ft 502 kts 54°
2026-05-06 02:48 -41.46129 -73.16878 31819 ft 502 kts 54°
2026-05-06 02:48 -41.42928 -73.08591 31812 ft 511 kts 62°
2026-05-06 02:49 -41.41216 -72.99235 31820 ft 521 kts 74°
2026-05-06 02:49 -41.40000 -72.89704 31822 ft 522 kts 73°
2026-05-06 02:50 -41.38715 -72.80138 31832 ft 523 kts 73°
2026-05-06 02:50 -41.37397 -72.70621 31839 ft 524 kts 73°
2026-05-06 02:51 -41.36037 -72.61025 31850 ft 525 kts 73°
2026-05-06 02:51 -41.34655 -72.51475 31846 ft 525 kts 72°
2026-05-06 02:52 -41.33185 -72.41985 31849 ft 526 kts 72°
2026-05-06 02:52 -41.31702 -72.32484 31858 ft 528 kts 71°
2026-05-06 02:53 -41.30192 -72.22865 31862 ft 527 kts 72°
2026-05-06 02:53 -41.28693 -72.13370 31852 ft 526 kts 72°
2026-05-06 02:54 -41.27168 -72.03760 31830 ft 528 kts 71°
2026-05-06 02:54 -41.25644 -71.94213 31828 ft 531 kts 72°
2026-05-06 02:55 -41.24110 -71.84646 31835 ft 529 kts 72°
2026-05-06 02:55 -41.22644 -71.75020 31830 ft 528 kts 73°
2026-05-06 02:56 -41.21196 -71.65424 31836 ft 530 kts 73°
2026-05-06 02:56 -41.19729 -71.55795 32242 ft 539 kts 73°
2026-05-06 02:56 -41.18977 -71.50874 33037 ft 534 kts 72°
2026-05-06 02:57 -41.18239 -71.46053 33805 ft 530 kts 72°
2026-05-06 02:57 -41.17500 -71.41251 34339 ft 530 kts 72°
2026-05-06 02:57 -41.16762 -71.36481 34750 ft 532 kts 72°
2026-05-06 02:57 -41.16016 -71.31667 35088 ft 531 kts 71°
2026-05-06 02:58 -41.15242 -71.26849 35344 ft 528 kts 69°
2026-05-06 02:58 -41.14114 -71.22252 35513 ft 522 kts 60°
2026-05-06 02:58 -41.12499 -71.17936 35676 ft 515 kts 51°
2026-05-06 02:58 -41.10491 -71.14085 35794 ft 508 kts 43°
2026-05-06 02:59 -41.08156 -71.10501 35838 ft 504 kts 41°
2026-05-06 02:59 -41.03464 -71.03612 35851 ft 502 kts 40°
2026-05-06 03:00 -40.98763 -70.96767 35845 ft 504 kts 40°
2026-05-06 03:00 -40.94047 -70.89930 35839 ft 502 kts 40°
2026-05-06 03:01 -40.89296 -70.83067 35846 ft 502 kts 41°
2026-05-06 03:01 -40.84585 -70.76283 35862 ft 503 kts 40°
2026-05-06 03:02 -40.79828 -70.69448 35861 ft 500 kts 41°
2026-05-06 03:02 -40.75110 -70.62689 35871 ft 502 kts 40°
2026-05-06 03:03 -40.70359 -70.55892 35862 ft 503 kts 40°
2026-05-06 03:03 -40.65650 -70.49168 35868 ft 502 kts 40°
2026-05-06 03:04 -40.60878 -70.42358 35866 ft 503 kts 42°
2026-05-06 03:04 -40.56549 -70.35007 35877 ft 508 kts 47°
2026-05-06 03:05 -40.52296 -70.27536 35867 ft 509 kts 46°
2026-05-06 03:05 -40.48045 -70.20095 36159 ft 508 kts 46°
2026-05-06 03:05 -40.45930 -70.16401 35979 ft 508 kts 46°
2026-05-06 03:06 -40.43806 -70.12695 35877 ft 501 kts 46°
2026-05-06 03:06 -40.39613 -70.05399 35861 ft 502 kts 46°
2026-05-06 03:07 -40.35376 -69.98048 35857 ft 503 kts 46°
2026-05-06 03:07 -40.31157 -69.90744 35856 ft 505 kts 46°
2026-05-06 03:08 -40.26903 -69.83395 35864 ft 505 kts 46°
2026-05-06 03:08 -40.22669 -69.76096 35866 ft 503 kts 46°
2026-05-06 03:09 -40.18410 -69.68778 35862 ft 506 kts 46°
2026-05-06 03:09 -40.14133 -69.61443 35864 ft 508 kts 46°
2026-05-06 03:10 -40.09851 -69.54115 35865 ft 506 kts 46°
2026-05-06 03:10 -40.05561 -69.46791 35870 ft 508 kts 45°
2026-05-06 03:11 -40.01248 -69.39447 35867 ft 508 kts 45°
2026-05-06 03:11 -39.96959 -69.32158 35860 ft 507 kts 45°
2026-05-06 03:12 -39.92644 -69.24845 35863 ft 509 kts 45°
2026-05-06 03:12 -39.88294 -69.17487 35879 ft 510 kts 45°
2026-05-06 03:13 -39.83952 -69.10164 35750 ft 514 kts 45°
2026-05-06 03:13 -39.81760 -69.06470 35862 ft 512 kts 44°
2026-05-06 03:13 -39.79577 -69.02798 35882 ft 514 kts 45°
2026-05-06 03:14 -39.75189 -68.95426 35893 ft 513 kts 44°
2026-05-06 03:14 -39.70830 -68.88123 35884 ft 513 kts 44°
2026-05-06 03:15 -39.66443 -68.80789 35901 ft 513 kts 44°
2026-05-06 03:15 -39.62079 -68.73511 35907 ft 513 kts 44°
2026-05-06 03:16 -39.57679 -68.66188 35886 ft 512 kts 44°
2026-05-06 03:16 -39.53278 -68.58884 35880 ft 514 kts 44°
2026-05-06 03:17 -39.48885 -68.51608 35904 ft 514 kts 44°
2026-05-06 03:17 -39.44487 -68.44341 35902 ft 515 kts 44°
2026-05-06 03:18 -39.40066 -68.37052 35892 ft 514 kts 44°
2026-05-06 03:18 -39.35663 -68.29806 35880 ft 511 kts 43°
2026-05-06 03:19 -39.31257 -68.22578 35885 ft 515 kts 43°
2026-05-06 03:19 -39.26840 -68.15346 35870 ft 516 kts 43°
2026-05-06 03:20 -39.20176 -68.04462 35885 ft 515 kts 43°
2026-05-06 03:20 -39.15732 -67.97229 35886 ft 516 kts 43°
2026-05-06 03:21 -39.11241 -67.89934 35883 ft 518 kts 43°
2026-05-06 03:21 -39.06769 -67.82685 35885 ft 520 kts 43°
2026-05-06 03:22 -39.02272 -67.75412 35885 ft 518 kts 43°
2026-05-06 03:22 -38.97795 -67.68189 35882 ft 519 kts 43°
2026-05-06 03:23 -38.93293 -67.60942 35882 ft 519 kts 43°
2026-05-06 03:23 -38.88779 -67.53694 35898 ft 522 kts 43°
2026-05-06 03:24 -38.84225 -67.46395 35908 ft 522 kts 43°
2026-05-06 03:24 -38.79678 -67.39123 35908 ft 520 kts 43°
2026-05-06 03:25 -38.75141 -67.31885 35901 ft 520 kts 42°
2026-05-06 03:25 -38.70605 -67.24664 35899 ft 522 kts 42°
2026-05-06 03:26 -38.66054 -67.17439 35900 ft 521 kts 42°
2026-05-06 03:26 -38.61526 -67.10261 35900 ft 518 kts 42°
2026-05-06 03:27 -38.56953 -67.03033 35896 ft 521 kts 42°
2026-05-06 03:27 -38.52384 -66.95827 35900 ft 524 kts 42°
2026-05-06 03:28 -38.47840 -66.88673 35902 ft 522 kts 42°
2026-05-06 03:28 -38.43266 -66.81486 35896 ft 517 kts 42°
2026-05-06 03:29 -38.38728 -66.74380 35904 ft 521 kts 42°
2026-05-06 03:29 -38.34169 -66.67114 35903 ft 526 kts 47°
2026-05-06 03:30 -38.32249 -66.63106 35912 ft 537 kts 53°
2026-05-06 03:30 -38.30468 -66.58891 35908 ft 539 kts 54°
2026-05-06 03:30 -38.26952 -66.50494 35913 ft 538 kts 54°
2026-05-06 03:31 -38.23426 -66.42117 35909 ft 537 kts 54°
2026-05-06 03:31 -38.19860 -66.33684 35911 ft 540 kts 53°
2026-05-06 03:32 -38.16304 -66.25300 35898 ft 540 kts 53°
2026-05-06 03:32 -38.12746 -66.16936 35900 ft 536 kts 53°
2026-05-06 03:33 -38.09185 -66.08594 35904 ft 537 kts 53°
2026-05-06 03:33 -38.05593 -66.00209 35909 ft 541 kts 53°
2026-05-06 03:34 -38.02005 -65.91846 35914 ft 539 kts 53°
2026-05-06 03:34 -38.00211 -65.87675 36231 ft 540 kts 53°
2026-05-06 03:34 -37.98421 -65.83519 35891 ft 540 kts 53°
2026-05-06 03:35 -37.96588 -65.79270 36046 ft 543 kts 53°
2026-05-06 03:35 -37.94803 -65.75132 35944 ft 538 kts 53°
2026-05-06 03:35 -37.91181 -65.66765 35916 ft 543 kts 53°
2026-05-06 03:36 -37.87564 -65.58425 35926 ft 542 kts 53°
2026-05-06 03:36 -37.83934 -65.50076 35921 ft 541 kts 53°
2026-05-06 03:37 -37.80304 -65.41754 35929 ft 544 kts 53°
2026-05-06 03:37 -37.76638 -65.33366 35915 ft 541 kts 52°
2026-05-06 03:38 -37.72980 -65.25024 35908 ft 545 kts 53°
2026-05-06 03:38 -37.69326 -65.16705 35915 ft 543 kts 53°
2026-05-06 03:39 -37.65630 -65.08318 35914 ft 544 kts 52°
2026-05-06 03:39 -37.61962 -65.00017 35918 ft 547 kts 52°
2026-05-06 03:40 -37.58245 -64.91624 35925 ft 545 kts 52°
2026-05-06 03:40 -37.54547 -64.83294 35926 ft 543 kts 53°
2026-05-06 03:41 -37.50819 -64.74924 35932 ft 547 kts 53°
2026-05-06 03:41 -37.47095 -64.66580 35937 ft 550 kts 52°
2026-05-06 03:42 -37.43362 -64.58237 35936 ft 550 kts 53°
2026-05-06 03:42 -37.39603 -64.49857 35938 ft 548 kts 53°
2026-05-06 03:43 -37.35866 -64.41549 35942 ft 550 kts 53°
2026-05-06 03:43 -37.32101 -64.33225 35924 ft 548 kts 52°
2026-05-06 03:44 -37.28283 -64.24881 35919 ft 552 kts 52°
2026-05-06 03:44 -37.24450 -64.16522 35920 ft 550 kts 52°
2026-05-06 03:45 -37.20636 -64.08224 35926 ft 550 kts 52°
2026-05-06 03:45 -37.16826 -63.99952 35929 ft 550 kts 52°
2026-05-06 03:46 -37.12998 -63.91664 35926 ft 549 kts 52°
2026-05-06 03:46 -37.09135 -63.83324 35927 ft 552 kts 52°
2026-05-06 03:47 -37.05264 -63.74984 35934 ft 553 kts 52°
2026-05-06 03:47 -37.01409 -63.66696 35930 ft 553 kts 52°
2026-05-06 03:48 -36.97524 -63.58368 35934 ft 553 kts 52°
2026-05-06 03:48 -36.93621 -63.50023 35939 ft 555 kts 53°
2026-05-06 03:49 -36.89727 -63.41717 35939 ft 555 kts 52°
2026-05-06 03:49 -36.85839 -63.33440 35932 ft 552 kts 52°
2026-05-06 03:50 -36.81920 -63.25124 35927 ft 554 kts 52°
2026-05-06 03:50 -36.77988 -63.16800 35924 ft 554 kts 52°
2026-05-06 03:51 -36.74062 -63.08509 35924 ft 555 kts 52°
2026-05-06 03:51 -36.70081 -63.00124 35925 ft 556 kts 52°
2026-05-06 03:52 -36.66154 -62.91874 35939 ft 558 kts 52°
2026-05-06 03:52 -36.62203 -62.83589 35938 ft 556 kts 52°
2026-05-06 03:53 -36.58212 -62.75248 35943 ft 557 kts 52°
2026-05-06 03:53 -36.54273 -62.67030 35939 ft 558 kts 52°
2026-05-06 03:54 -36.50296 -62.58754 35954 ft 558 kts 52°
2026-05-06 03:54 -36.46304 -62.50471 35963 ft 557 kts 53°
2026-05-06 03:55 -36.42324 -62.42233 35957 ft 560 kts 53°
2026-05-06 03:55 -36.38303 -62.33927 35959 ft 558 kts 52°
2026-05-06 03:56 -36.34309 -62.25696 35945 ft 558 kts 52°
2026-05-06 03:56 -36.30302 -62.17459 35938 ft 556 kts 52°
2026-05-06 03:57 -36.26302 -62.09261 35950 ft 557 kts 52°
2026-05-06 03:57 -36.22261 -62.00996 35955 ft 558 kts 52°
2026-05-06 03:58 -36.18247 -61.92803 35950 ft 557 kts 52°
2026-05-06 03:58 -36.14223 -61.84615 35951 ft 559 kts 52°
2026-05-06 03:59 -36.10183 -61.76411 35957 ft 559 kts 52°
2026-05-06 03:59 -36.06164 -61.68242 35956 ft 557 kts 52°
2026-05-06 04:00 -36.02105 -61.60017 35959 ft 560 kts 52°
2026-05-06 04:00 -35.98038 -61.51794 35961 ft 561 kts 53°
2026-05-06 04:01 -35.93980 -61.43609 35959 ft 561 kts 53°
2026-05-06 04:01 -35.89874 -61.35345 35956 ft 559 kts 53°
2026-05-06 04:02 -35.85820 -61.27177 35947 ft 562 kts 52°
2026-05-06 04:02 -35.81779 -61.18999 35952 ft 561 kts 53°
2026-05-06 04:03 -35.77683 -61.10727 35960 ft 562 kts 52°
2026-05-06 04:03 -35.73619 -61.02542 35965 ft 560 kts 52°
2026-05-06 04:04 -35.69546 -60.94362 35967 ft 563 kts 52°
2026-05-06 04:04 -35.65445 -60.86146 35958 ft 562 kts 53°
2026-05-06 04:05 -35.61390 -60.78035 35967 ft 550 kts 52°
2026-05-06 04:05 -35.57435 -60.70142 35963 ft 543 kts 52°
2026-05-06 04:06 -35.53426 -60.62173 35946 ft 544 kts 53°
2026-05-06 04:06 -35.49437 -60.54260 35959 ft 550 kts 52°
2026-05-06 04:07 -35.45417 -60.46300 35959 ft 549 kts 53°
2026-05-06 04:07 -35.41381 -60.38326 35961 ft 556 kts 53°
2026-05-06 04:08 -35.37309 -60.30301 35686 ft 556 kts 52°
2026-05-06 04:08 -35.35273 -60.26291 34902 ft 556 kts 52°
2026-05-06 04:08 -35.33217 -60.22248 33950 ft 550 kts 53°
2026-05-06 04:09 -35.31230 -60.18341 33164 ft 539 kts 53°
2026-05-06 04:09 -35.29252 -60.14455 32373 ft 528 kts 53°
2026-05-06 04:09 -35.27340 -60.10708 31597 ft 518 kts 53°
2026-05-06 04:09 -35.25432 -60.06970 30808 ft 509 kts 53°
2026-05-06 04:10 -35.23571 -60.03331 30031 ft 500 kts 52°
2026-05-06 04:10 -35.21753 -59.99781 29270 ft 491 kts 53°
2026-05-06 04:10 -35.19951 -59.96266 28505 ft 483 kts 53°
2026-05-06 04:10 -35.18169 -59.92794 27734 ft 475 kts 53°
2026-05-06 04:11 -35.16442 -59.89432 26979 ft 468 kts 53°
2026-05-06 04:11 -35.14701 -59.86047 26202 ft 460 kts 53°
2026-05-06 04:11 -35.13008 -59.82758 25438 ft 452 kts 53°
2026-05-06 04:11 -35.11350 -59.79538 24674 ft 444 kts 53°
2026-05-06 04:12 -35.09685 -59.76312 23712 ft 442 kts 54°
2026-05-06 04:12 -35.08038 -59.73123 22693 ft 440 kts 54°
2026-05-06 04:12 -35.06416 -59.69985 21682 ft 437 kts 54°
2026-05-06 04:12 -35.04800 -59.66862 20676 ft 434 kts 55°
2026-05-06 04:13 -35.03279 -59.63677 19666 ft 433 kts 63°
2026-05-06 04:13 -35.02208 -59.60217 18654 ft 431 kts 73°
2026-05-06 04:13 -35.01523 -59.56709 17682 ft 428 kts 76°
2026-05-06 04:13 -35.00887 -59.53184 16698 ft 423 kts 76°
2026-05-06 04:14 -35.00254 -59.49675 15714 ft 417 kts 76°
2026-05-06 04:14 -34.99636 -59.46251 14740 ft 412 kts 76°
2026-05-06 04:14 -34.99021 -59.42856 13764 ft 406 kts 76°
2026-05-06 04:14 -34.98415 -59.39514 12810 ft 400 kts 75°
2026-05-06 04:15 -34.97818 -59.36231 11857 ft 394 kts 76°
2026-05-06 04:15 -34.97234 -59.33025 11090 ft 382 kts 75°
2026-05-06 04:15 -34.96677 -59.29961 10817 ft 357 kts 75°
2026-05-06 04:15 -34.96157 -59.27103 10792 ft 328 kts 75°
2026-05-06 04:16 -34.95684 -59.24515 10822 ft 306 kts 74°
2026-05-06 04:16 -34.95227 -59.22025 10789 ft 292 kts 74°
2026-05-06 04:16 -34.94792 -59.19661 10703 ft 281 kts 74°
2026-05-06 04:16 -34.94361 -59.17323 10430 ft 278 kts 73°
2026-05-06 04:17 -34.93941 -59.15051 10055 ft 280 kts 74°
2026-05-06 04:17 -34.93511 -59.12716 9548 ft 282 kts 74°
2026-05-06 04:17 -34.93085 -59.10403 8960 ft 283 kts 74°
2026-05-06 04:17 -34.92645 -59.08020 8295 ft 286 kts 74°
2026-05-06 04:18 -34.92212 -59.05672 7796 ft 282 kts 74°
2026-05-06 04:18 -34.91787 -59.03368 7312 ft 279 kts 73°
2026-05-06 04:18 -34.91363 -59.01082 6825 ft 277 kts 73°
2026-05-06 04:18 -34.90703 -58.98893 6307 ft 268 kts 51°
2026-05-06 04:19 -34.89412 -58.97357 5815 ft 258 kts 31°
2026-05-06 04:19 -34.87861 -58.96277 5324 ft 255 kts 25°
2026-05-06 04:19 -34.86261 -58.95341 4838 ft 253 kts 24°
2026-05-06 04:19 -34.84670 -58.94460 4339 ft 252 kts 23°
2026-05-06 04:20 -34.83074 -58.93588 3871 ft 249 kts 24°
2026-05-06 04:20 -34.81505 -58.92733 3559 ft 242 kts 24°
2026-05-06 04:20 -34.79980 -58.91902 3262 ft 241 kts 25°
2026-05-06 04:20 -34.78442 -58.91027 2982 ft 241 kts 32°
2026-05-06 04:21 -34.77242 -58.89638 2671 ft 240 kts 57°
2026-05-06 04:21 -34.76603 -58.87769 2379 ft 240 kts 80°
2026-05-06 04:21 -34.76611 -58.85773 2222 ft 235 kts 92°
2026-05-06 04:21 -34.76799 -58.83828 2201 ft 224 kts 95°
2026-05-06 04:22 -34.77045 -58.82020 2202 ft 211 kts 97°
2026-05-06 04:22 -34.77329 -58.80308 2200 ft 199 kts 98°
2026-05-06 04:22 -34.77624 -58.78721 2194 ft 184 kts 99°
2026-05-06 04:23 -34.78191 -58.75759 2204 ft 177 kts 99°
2026-05-06 04:23 -34.78460 -58.74302 2206 ft 178 kts 98°
2026-05-06 04:23 -34.78729 -58.72821 2201 ft 177 kts 98°
2026-05-06 04:23 -34.78996 -58.71355 2199 ft 172 kts 99°
2026-05-06 04:24 -34.79246 -58.69994 2188 ft 157 kts 99°
2026-05-06 04:24 -34.79472 -58.68761 2195 ft 147 kts 98°
2026-05-06 04:24 -34.79695 -58.67527 2057 ft 149 kts 98°
2026-05-06 04:24 -34.79913 -58.66335 1869 ft 139 kts 98°
2026-05-06 04:25 -34.80122 -58.65179 1696 ft 138 kts 98°
2026-05-06 04:25 -34.80329 -58.64035 1518 ft 138 kts 98°
2026-05-06 04:25 -34.80535 -58.62899 1332 ft 140 kts 98°
2026-05-06 04:25 -34.80747 -58.61732 1148 ft 140 kts 99°
2026-05-06 04:26 -34.80956 -58.60576 961 ft 140 kts 99°
2026-05-06 04:26 -34.81168 -58.59404 768 ft 141 kts 100°
2026-05-06 04:26 -34.81377 -58.58245 581 ft 141 kts 100°
2026-05-06 04:26 -34.81588 -58.57081 394 ft 141 kts 101°
2026-05-06 04:27 -34.81800 -58.55902 206 ft 142 kts 101°
2026-05-06 04:27 -34.82001 -58.54726 77 ft 137 kts 101°
2026-05-06 04:27 -34.82184 -58.53774 77 ft 92 kts 99°
2026-05-06 04:27 -34.82289 -58.53195 77 ft 48 kts 100°
2026-05-06 04:28 -34.82338 -58.52930 77 ft 26 kts 103°
2026-05-06 04:28 -34.82375 -58.52728 77 ft 24 kts 103°
2026-05-06 04:28 -34.82411 -58.52534 77 ft 22 kts 102°
2026-05-06 04:28 -34.82443 -58.52353 77 ft 20 kts 102°
2026-05-06 04:29 -34.82472 -58.52188 77 ft 19 kts 102°
2026-05-06 04:29 -34.82498 -58.52034 77 ft 17 kts 102°
2026-05-06 04:29 -34.82511 -58.51893 77 ft 15 kts 75°
2026-05-06 04:29 -34.82437 -58.51812 77 ft 14 kts 17°
2026-05-06 04:30 -34.82343 -58.51790 77 ft 13 kts
2026-05-06 04:30 -34.82270 -58.51812 77 ft 10 kts 303°
2026-05-06 04:30 -34.82250 -58.51894 77 ft 10 kts 284°
2026-05-06 04:30 -34.82233 -58.51978 77 ft 10 kts 284°
2026-05-06 04:31 -34.82217 -58.52060 77 ft 10 kts 284°
2026-05-06 04:31 -34.82200 -58.52143 77 ft 10 kts 284°
2026-05-06 04:31 -34.82184 -58.52226 77 ft 10 kts 284°
2026-05-06 04:31 -34.82164 -58.52325 76 ft 13 kts 284°
2026-05-06 04:32 -34.82140 -58.52446 77 ft 15 kts 284°
2026-05-06 04:32 -34.82112 -58.52584 77 ft 17 kts 284°
2026-05-06 04:32 -34.82080 -58.52740 77 ft 19 kts 284°
2026-05-06 04:32 -34.82045 -58.52909 77 ft 21 kts 284°
2026-05-06 04:33 -34.82011 -58.53090 77 ft 22 kts 283°
2026-05-06 04:33 -34.81973 -58.53281 77 ft 24 kts 283°
2026-05-06 04:33 -34.81932 -58.53483 77 ft 24 kts 284°
2026-05-06 04:33 -34.81879 -58.53637 77 ft 15 kts 317°
2026-05-06 04:34 -34.81781 -58.53701 77 ft 15 kts 335°
2026-05-06 04:34 -34.81694 -58.53778 77 ft 15 kts 310°
2026-05-06 04:34 -34.81636 -58.53851 77 ft 11 kts 318°
2026-05-06 04:34 -34.81575 -58.53918 77 ft 11 kts 318°
2026-05-06 04:35 -34.81562 -58.53932 77 ft 0 kts 318°
2026-05-06 04:35 -34.81561 -58.53933 77 ft 0 kts 318°